Regional Weather Roundup
Issued by NWS Wakefield, VA

Home | Current Version | Previous Version | Graphics & Text | Print | Product List | Glossary On
Versions: 1 2 3 4 5 6 7 8 9 10 11 12 13 14 15 16 17 18 19 20 21 22 23 24 25 26 27
000
ASUS41 KAKQ 290015
RWRAKQ

REGIONAL WEATHER ROUNDUP
NATIONAL WEATHER SERVICE WAKEFIELD VA
800 PM EDT FRI APR 28 2017

Note: "fair" indicates few or no clouds below 12,000 feet with no
significant weather and/or obstructions to visibility. * = Denotes
station may not report precipitation (e.g., rain,snow,etc.),
thunder or fog.

VAZ042-051-052>054-056-290100-
NORTHERN VIRGINIA

CITY           SKY/WX    TMP DP  RH WIND       PRES   REMARKS
WASH NATIONAL  MOCLDY    78  64  61 SE14      30.00S
DULLES         MOCLDY    77  61  57 SE9       30.00S
FORT BELVOIR   PTCLDY    75  63  65 SE5       30.00S
QUANTICO       PTCLDY    75  65  70 S6        30.01S
FREDERICKSBRG* PTCLDY    80  64  59 E7        29.99S
STAFFORD*      PTCLDY    74  62  67 E5        30.04R
WARRENTON      PTCLDY    79  57  47 SE3       30.00S
CULPEPER*      CLEAR     76  64  66 CALM      30.01S
MANASSAS*        N/A     76  63  64 SE10      30.00S
LEESBURG*      PTCLDY    81  64  57 S10       30.00S
WINCHESTER     PTCLDY    75  55  50 S7        29.99R
FRONT ROYAL*   MOCLDY    77  59  53 S5        29.98R
LURAY*         MOCLDY    77  55  47 S6        30.00S
$$

VAZ048-049-060>072-079>083-290100-
CENTRAL AND SOUTH CENTRAL VIRGINIA

CITY           SKY/WX    TMP DP  RH WIND       PRES   REMARKS
RICHMOND       PTCLDY    78  67  68 S6        30.02R
CHESTERFIELD*  FAIR      81  55  41 S3        30.03R
PETERSBURG*    CLEAR     79  66  65 S3        30.03S
HANOVER        CLEAR     76  64  66 CALM      30.02S
TAPPAHANNOCK*  CLEAR     76  60  57 CALM      30.03R
QUINTON*       FAIR      82  68  62 SE3       30.01R
CHARLOTTSVILLE CLEAR     77  60  55 S7        30.00S
GORDONSVILLE*  CLEAR     78  63  58 S3        30.00S
ORANGE*        CLEAR     77  61  57 S3        30.00S
LOUISA*        CLEAR     81  66  61 CALM      30.00S
BUMPASS*       FAIR      76  64  65 CALM      30.01S
FARMVILLE*     CLEAR     78  67  70 S5        30.01S
CREWE*         FAIR      75  75  99 CALM      30.02S
FORT PICKETT*  NOT AVBL
CHASE CITY*    FAIR      79  68  69 CALM      30.03S
CLARKSVILLE*   FAIR      77  70  78 CALM      30.03R
SOUTH HILL*    CLEAR     77  71  82 S3        30.09S
LAWRENCEVILLE* FAIR      79  69  73 CALM      30.03S
EMPORIA*       CLEAR     79  70  73 CALM      30.05R
$$

VAZ088>098-290100-
SOUTHEAST VIRGINIA

CITY           SKY/WX    TMP DP  RH WIND       PRES   REMARKS
NORFOLK        CLEAR     82  69  64 S7        30.03S
VIRGINIA BEACH PTCLDY    80  68  66 S5        30.03S
NORFOLK NAVAL  PTCLDY    81  67  62 SW5       30.05R
WEST POINT*    CLEAR     78  66  65 S3        30.04R
SALUDA*        FAIR      77  72  84 SE3       30.03R
NEWPORT NEWS   CLEAR     79  68  69 S7        30.03S
LANGLEY AFB    CLEAR     78  71  77 SE6       30.03S
FORT EUSTIS    CLEAR     82  69  64 S3        30.01S
WILLIAMSBURG*  CLEAR     82  70  65 CALM      30.04R
HR EXEC AP*    FAIR      77  68  73 CALM      30.02R
FRANKLIN*      CLEAR     77  69  77 CALM      30.04R
US460-WAKEFLD  CLEAR     77  71  82 CALM      30.03R
$$

VAZ020-022-025-037-045-290100-
WEST CENTRAL AND SOUTHWEST VIRGINIA

CITY           SKY/WX    TMP DP  RH WIND       PRES   REMARKS
STAUNTON*      CLEAR     75  60  57 S8        30.04R
WAYNESBORO*    CLEAR     75  60  59 S7        30.04R
HOT SPRINGS VA PTCLDY    64  50  59 SE9       30.14S
LYNCHBURG      CLEAR     74  64  71 S6        30.04S
DANVILLE       CLEAR     77  67  71 VRB7      30.03S
SOUTH BOSTON*  FAIR      78  66  66 CALM      30.03S
MARTINSVILLE   CLEAR     76  64  64 SW3       30.06S
ROANOKE        PTCLDY    78  61  55 S12       30.04S
BLACKSBURG     CLEAR     75  60  58 S7        30.10R
DUBLIN*        CLEAR     75  55  48 S6        30.09R
MARION*        CLEAR     74  59  57 CALM      30.09R
HILLSVILLE*    CLEAR     71  63  74 S5        30.10R
RICHLANDS*     MOCLDY    78  55  46 S3        30.04R
WISE*          CLOUDY    73  52  46 SW6       30.05R
ABINGDON*      CLEAR     78  58  50 W5        30.02R
$$

MDZ021>025-VAZ099-100-290100-
SOUTHERN MARYLAND AND THE DELMARVA PENINSULA

CITY           SKY/WX    TMP DP  RH WIND       PRES   REMARKS
PATUXENT RIVER MOCLDY    70  69  97 SE6       30.02F
BAY BRIDGE APT CLOUDY    73  63  68 SE3       30.02R
LEONARDTOWN    PTCLDY    73  64  73 SE5       30.05R
DOVER          CLEAR     73  71  93 SE5       30.02S
GEORGETOWN     CLOUDY    77  59  53 S6        30.04S
EASTON         PTCLDY    77  59  53 S6        30.06F
CAMBRIDGE      CLEAR     73  64  73 SE5       30.03S
SALISBURY      PTCLDY    76  68  76 SE9       30.05R
OCEAN CITY     CLEAR     69  65  86 SW8       30.06S
WALLOPS ISLAND CLEAR     67  67 100 S5        30.07R
ACCOMACK*      CLEAR     74  70  88 SE7       30.05S
$$

NCZ012>017-030>032-290100-
NORTH CENTRAL AND EASTERN NORTH CAROLINA

CITY           SKY/WX    TMP DP  RH WIND       PRES   REMARKS
ROANOKE RAPIDS FAIR      79  68  69 CALM      30.03S
RALEIGH        PTCLDY    82  64  54 S7        30.05R
ELIZABETH CITY CLEAR     80  75  84 S10       30.06S
AHOSKIE*         N/A     76  70  80 CALM      30.05R
EDENTON*       PTCLDY    82  74  77 S10       30.07R
CURRITUCK*     CLEAR     81  73  76 S6        30.07R
KILL DEVIL HLS CLEAR     76  72  85 S3        30.08R
MANTEO         CLEAR     75  72  88 SW15      30.09R
CAPE HATTERAS  CLEAR     76  72  87 SW16G22   30.13R FOG
TARBORO*       NOT AVBL
GOLDSBORO      CLEAR     82  77  82 S10       30.05R
WASHINGTON     CLEAR     80  73  78 S7        30.07S
GREENVILLE     CLEAR     82  72  69 S10       30.08R
NEW BERN       PTCLDY    77  74  90 S9        30.11R
WILMINGTON     CLOUDY    78  74  87 S13G22    30.11R
$$

VAZ048-290100-
ELSEWHERE

CITY           SKY/WX    TMP DP  RH WIND       PRES   REMARKS
HARRISBURG PA  MOCLDY    71  54  54 CALM      30.00S
BALTIMORE      MOCLDY    76  59  55 SE6       30.00F
ANNAPOLIS      PTCLDY    73  62  68 S7        30.01S
ANDREWS AFB    PTCLDY    75  61  61 SE10      30.01S
PHILADELPHIA   MOCLDY    77  55  46 S7        30.02R
HENDERSON NC   CLEAR     76  65  67 SW3       30.04S
GREENSBORO     PTCLDY    78  67  68 SW7       30.04F
ROCKY MOUNT    CLEAR     80  70  71 S5        30.05R
$$

VAZ100-290100-
MARINE

STATION/POSITION TIME  TEMP    WIND        PRES    WAVE   SWELL
                       AIR SEA DIR/SP/G            HT/PER HT/PER
                 (UTC) (F)     (DEG/KT/KT) (MB)    (FT/S) (FT/S)
CAPE MAY NJ      2342   68 61  140/  8/ 11 1017.1F
LEWES DE         2348          160/  3/  4 1017.1S
15NM E FENWICK I 2350   56 55  140/  8/ 10 1018.6R   4/ 8   3/ 8
OCEAN-CITY-INLET 2348          220/  8/  9 1018.5R
WACHAPREAGUE VA  2342   70 73  180/  5/  6 1017.4R
THOMAS POINT MD  0000   67 60  190/  9/ 10   N/A
GOOSES REEF MD   0000   66 58  200/  6/  8 1017.4
COVE POINT MD    2342   69     170/  8/  9 1017.2F
SOLOMONS ISLAND  2342   70 65  100/  6/  6   N/A
BISHOPS HEAD MD  2342   72 70  110/  6/  7 1017.3F
PINEY POINT MD   2348          120/  9/  9   N/A
POTOMAC MD       0000   69 66  150/ 10/ 12 1016.0    0
CAMBRIDGE MD     2342   77 67                N/A
LEWISETTA VA     2342   72 68  140/  4/  5 1016.2F
RAPPAHANNOCK LGT 2348          120/ 12/ 13 1017.7S
STINGRAY PT      2350   66     190/  4/  6 1017.0R
YORK RVR RNG VA  2342   68     150/ 12/ 12 1016.3S
YORKTOWN VA      2342   72 68   CALM  /  2 1016.6R
JAMESTOWN VA     0000   77 71  150/  2/  4   N/A     0
DOMINION TERM VA 2342   77     140/  3/  4 1017.2R
KIPTOPEKE VA     2348      66  110/  4/  5   N/A
CHES BAY BRIDGE  2336   76 64  140/  4/  5 1017.0R
CAPE HENRY VA    2342   76     160/  4/  4   N/A
WILLOUBY STN VA  2342   75        CALM     1018.1S
S CRANEY ISL VA  2342   82     200/  6/  7 1016.9S
CAPE HENRY BUOY  2342      66                N/A     3/ 8
1ST LANDING BUOY 0000   66 62              1017.3    2/ 4
CAPE CHARLES BUO 2351      65                N/A     3/ 8
64NM E OF VA BCH 2350   62 58  200/ 14/ 16 1019.3R   4/ 8   3/ 8
DUCK PIER NC     2336   78 57  180/ 11/ 16 1017.8R
44100 DUCK FRF   2305      63                N/A     4/ 6
44056 DUCK FRF   2330      62                N/A     3/ 8
OREGON INLET NC  2348          190/ 18/ 20 1019.2R
HATTERAS NC      2336   75 73  200/ 12/ 16 1019.7S
DIAMOND SHLS NC  2350   77 76  210/ 16/ 19 1020.1F   4/ 7   3/ 7
CAPE LOOKOUT NC  0000   74     190/  8/ 11 1020.1R
$$




USA.gov is the U.S. government's official web portal to all federal, state and local government web resources and services.